Terminal Aerodrome Forecast
Issued by NWS Northern Indiana

Home | Current Version | Previous Version | Graphics & Text | Print | Product List | Glossary On
Versions: 1 2 3 4 5 6 7 8 9 10 11 12 13 14 15
224
FTUS43 KIWX 042323
TAFFWA
TAF
KFWA 042323Z 0500/0524 32013G22KT P6SM BKN025
      TEMPO 0500/0504 6SM -SHRA OVC015
     FM050500 34008KT 6SM BR VCSH OVC010
     FM051300 01014G24KT P6SM SCT015
     FM051600 01014G24KT P6SM BKN035=

USA.gov is the U.S. government's official web portal to all federal, state and local government web resources and services.